GOW363 VABB-VAAH

Flight info

Callsign GOW363
Flight time 0h 49m
Altitude 35000
Route ANOLI2A ISRIS G208 APANO APANO1A
Aircraft A20N/M-SDE2E3FGHIRWXY/LB1

Departure

Time 2026-04-29 19:05
Airport Chhatrapati Shivaji Maharaj International Airport (VABB)

Arrival

Time 2026-04-29 19:54
Airport Sardar Vallabh Patel International Airport (VAAH)
Time Latitude Longitude Altitude Speed Heading
2026-04-29 18:36 19.09159 72.85486 49 ft 0 kts
2026-04-29 18:54 19.09153 72.85486 49 ft 2 kts
2026-04-29 18:54 19.09136 72.85486 44 ft 2 kts
2026-04-29 18:54 19.09119 72.85485 45 ft 2 kts
2026-04-29 18:54 19.09103 72.85483 48 ft 2 kts 25°
2026-04-29 18:55 19.09093 72.85470 45 ft 2 kts 85°
2026-04-29 18:55 19.09092 72.85462 44 ft 1 kts 89°
2026-04-29 18:58 19.09092 72.85469 44 ft 3 kts 89°
2026-04-29 18:58 19.09093 72.85502 49 ft 6 kts 89°
2026-04-29 18:58 19.09094 72.85561 49 ft 10 kts 89°
2026-04-29 18:59 19.09047 72.85606 49 ft 11 kts 149°
2026-04-29 18:59 19.09028 72.85683 48 ft 13 kts 88°
2026-04-29 18:59 19.09030 72.85786 48 ft 15 kts 89°
2026-04-29 18:59 19.09031 72.85911 48 ft 18 kts 89°
2026-04-29 19:00 19.09034 72.86055 48 ft 21 kts 88°
2026-04-29 19:00 19.09035 72.86213 48 ft 22 kts 91°
2026-04-29 19:00 19.09036 72.86384 48 ft 24 kts 89°
2026-04-29 19:00 19.09039 72.86551 49 ft 22 kts 88°
2026-04-29 19:01 19.09042 72.86718 50 ft 23 kts 88°
2026-04-29 19:01 19.09045 72.86886 50 ft 23 kts 91°
2026-04-29 19:01 19.09047 72.87063 50 ft 25 kts 88°
2026-04-29 19:01 19.09049 72.87250 49 ft 26 kts 89°
2026-04-29 19:02 19.09051 72.87428 49 ft 23 kts 90°
2026-04-29 19:02 19.09052 72.87543 49 ft 24 kts 89°
2026-04-29 19:02 19.09056 72.87723 48 ft 18 kts 89°
2026-04-29 19:02 19.09060 72.87865 48 ft 21 kts 88°
2026-04-29 19:03 19.09053 72.88022 45 ft 22 kts 118°
2026-04-29 19:03 19.08911 72.88032 46 ft 23 kts 219°
2026-04-29 19:03 19.08887 72.87949 47 ft 0 kts 272°
2026-04-29 19:04 19.08888 72.87917 47 ft 26 kts 270°
2026-04-29 19:04 19.08880 72.87466 49 ft 94 kts 269°
2026-04-29 19:05 19.08868 72.86589 46 ft 144 kts 269°
2026-04-29 19:05 19.08858 72.85454 388 ft 158 kts 270°
2026-04-29 19:05 19.08850 72.84273 895 ft 165 kts 269°
2026-04-29 19:05 19.08843 72.83052 1483 ft 163 kts 269°
2026-04-29 19:06 19.08824 72.81858 2058 ft 168 kts 268°
2026-04-29 19:06 19.08799 72.80550 2375 ft 187 kts 268°
2026-04-29 19:06 19.08743 72.77515 2968 ft 230 kts 269°
2026-04-29 19:07 19.08714 72.75741 3431 ft 251 kts 269°
2026-04-29 19:07 19.08696 72.74498 3816 ft 260 kts 271°
2026-04-29 19:07 19.09421 72.72074 4903 ft 264 kts 307°
2026-04-29 19:07 19.10834 72.70844 5833 ft 266 kts 333°
2026-04-29 19:08 19.12646 72.70440 6687 ft 274 kts 358°
2026-04-29 19:08 19.14465 72.70910 7325 ft 290 kts 24°
2026-04-29 19:08 19.16226 72.72155 8065 ft 299 kts 33°
2026-04-29 19:08 19.18002 72.73302 8784 ft 302 kts 21°
2026-04-29 19:09 19.19999 72.73998 9532 ft 303 kts
2026-04-29 19:09 19.22107 72.74276 10167 ft 310 kts 360°
2026-04-29 19:09 19.24344 72.74301 10430 ft 331 kts 355°
2026-04-29 19:09 19.26708 72.74186 10694 ft 349 kts 354°
2026-04-29 19:10 19.29120 72.74039 11347 ft 353 kts 356°
2026-04-29 19:10 19.31619 72.74164 12096 ft 357 kts
2026-04-29 19:10 19.34060 72.74539 12821 ft 360 kts
2026-04-29 19:10 19.36545 72.74920 13567 ft 362 kts
2026-04-29 19:11 19.39049 72.75302 14226 ft 363 kts
2026-04-29 19:11 19.41551 72.75684 14903 ft 364 kts
2026-04-29 19:11 19.44070 72.76070 15583 ft 365 kts
2026-04-29 19:11 19.46569 72.76454 16218 ft 367 kts
2026-04-29 19:12 19.49102 72.76843 16881 ft 368 kts
2026-04-29 19:12 19.51681 72.77239 17512 ft 371 kts
2026-04-29 19:12 19.54206 72.77627 18122 ft 373 kts
2026-04-29 19:12 19.55065 72.77760 18310 ft 373 kts
2026-04-29 19:13 19.59383 72.78424 19155 ft 379 kts
2026-04-29 19:13 19.62008 72.78828 19678 ft 382 kts
2026-04-29 19:13 19.64646 72.79234 20197 ft 385 kts
2026-04-29 19:13 19.67314 72.79645 20726 ft 388 kts
2026-04-29 19:14 19.69963 72.80054 21245 ft 391 kts
2026-04-29 19:14 19.72669 72.80471 21775 ft 394 kts
2026-04-29 19:14 19.75390 72.80890 22306 ft 397 kts
2026-04-29 19:14 19.77214 72.81172 22678 ft 399 kts
2026-04-29 19:15 19.80872 72.81736 23369 ft 403 kts
2026-04-29 19:15 19.82724 72.82022 23661 ft 405 kts
2026-04-29 19:15 19.85556 72.82460 24111 ft 408 kts
2026-04-29 19:15 19.89300 72.83039 24650 ft 412 kts
2026-04-29 19:16 19.91190 72.83331 24914 ft 414 kts
2026-04-29 19:16 19.94043 72.83773 25318 ft 416 kts
2026-04-29 19:16 19.96926 72.84220 25692 ft 420 kts
2026-04-29 19:16 19.99825 72.84670 26069 ft 422 kts
2026-04-29 19:17 20.02740 72.85122 26440 ft 425 kts
2026-04-29 19:17 20.05689 72.85579 26793 ft 428 kts
2026-04-29 19:17 20.08160 72.85962 27070 ft 430 kts
2026-04-29 19:17 20.11179 72.86401 27410 ft 432 kts
2026-04-29 19:18 20.14216 72.86785 27734 ft 435 kts
2026-04-29 19:18 20.16205 72.87028 27934 ft 437 kts
2026-04-29 19:18 20.20262 72.87527 28341 ft 440 kts
2026-04-29 19:18 20.23276 72.87905 28639 ft 442 kts
2026-04-29 19:19 20.26332 72.88292 28920 ft 445 kts
2026-04-29 19:19 20.29416 72.88686 29196 ft 447 kts
2026-04-29 19:19 20.32518 72.89083 29463 ft 449 kts
2026-04-29 19:19 20.35587 72.89477 29725 ft 452 kts
2026-04-29 19:20 20.38705 72.89876 29969 ft 454 kts
2026-04-29 19:20 20.41849 72.90280 30269 ft 454 kts
2026-04-29 19:20 20.44985 72.90682 30602 ft 453 kts
2026-04-29 19:20 20.48107 72.91083 30916 ft 453 kts
2026-04-29 19:21 20.51197 72.91480 31301 ft 450 kts
2026-04-29 19:21 20.54301 72.91879 31760 ft 446 kts
2026-04-29 19:21 20.57370 72.92274 32211 ft 442 kts
2026-04-29 19:21 20.60400 72.92663 32653 ft 438 kts
2026-04-29 19:22 20.63417 72.93050 33064 ft 434 kts
2026-04-29 19:22 20.66409 72.93434 33464 ft 431 kts
2026-04-29 19:22 20.69376 72.93814 33851 ft 427 kts
2026-04-29 19:22 20.72333 72.94194 34099 ft 426 kts
2026-04-29 19:23 20.75242 72.94560 34275 ft 426 kts
2026-04-29 19:23 20.78208 72.94732 34461 ft 425 kts 359°
2026-04-29 19:23 20.81168 72.94827 34645 ft 426 kts 359°
2026-04-29 19:23 20.84128 72.94934 34796 ft 426 kts 359°
2026-04-29 19:24 20.87085 72.95046 34807 ft 425 kts 359°
2026-04-29 19:24 20.92991 72.95266 34807 ft 424 kts 359°
2026-04-29 19:25 20.98899 72.95482 34803 ft 424 kts 359°
2026-04-29 19:25 21.04809 72.95698 34805 ft 424 kts 359°
2026-04-29 19:26 21.10725 72.95914 34799 ft 424 kts 359°
2026-04-29 19:26 21.16625 72.96130 34798 ft 424 kts 359°
2026-04-29 19:27 21.22490 72.96380 34796 ft 424 kts 360°
2026-04-29 19:27 21.28392 72.96704 34793 ft 425 kts 360°
2026-04-29 19:28 21.34292 72.97020 34775 ft 423 kts 360°
2026-04-29 19:28 21.37235 72.97175 34454 ft 422 kts 360°
2026-04-29 19:28 21.40179 72.97328 33785 ft 425 kts 360°
2026-04-29 19:28 21.43132 72.97481 32660 ft 433 kts 360°
2026-04-29 19:29 21.46223 72.97640 31263 ft 449 kts 360°
2026-04-29 19:29 21.49386 72.97803 30018 ft 461 kts 360°
2026-04-29 19:29 21.52631 72.97972 28795 ft 467 kts 360°
2026-04-29 19:29 21.55819 72.98125 28134 ft 460 kts 358°
2026-04-29 19:30 21.58984 72.97971 27550 ft 450 kts 351°
2026-04-29 19:30 21.62038 72.97427 26982 ft 440 kts 345°
2026-04-29 19:30 21.65002 72.96711 26446 ft 432 kts 345°
2026-04-29 19:30 21.67915 72.96024 25928 ft 426 kts 345°
2026-04-29 19:31 21.70792 72.95349 25417 ft 419 kts 345°
2026-04-29 19:31 21.73618 72.94686 24929 ft 412 kts 345°
2026-04-29 19:31 21.76406 72.94029 24447 ft 406 kts 345°
2026-04-29 19:31 21.79111 72.93390 24006 ft 400 kts 345°
2026-04-29 19:32 21.81812 72.92751 23553 ft 394 kts 345°
2026-04-29 19:32 21.84474 72.92121 23071 ft 389 kts 345°
2026-04-29 19:32 21.87119 72.91494 22555 ft 388 kts 345°
2026-04-29 19:32 21.89754 72.90869 22060 ft 387 kts 345°
2026-04-29 19:33 21.92385 72.90245 21585 ft 385 kts 345°
2026-04-29 19:33 21.94992 72.89627 21092 ft 382 kts 345°
2026-04-29 19:33 21.97586 72.89012 20629 ft 380 kts 345°
2026-04-29 19:33 22.00150 72.88403 20276 ft 377 kts 345°
2026-04-29 19:34 22.02675 72.87804 19987 ft 375 kts 345°
2026-04-29 19:34 22.05223 72.87199 19530 ft 374 kts 345°
2026-04-29 19:34 22.07765 72.86595 19004 ft 372 kts 345°
2026-04-29 19:34 22.10293 72.85995 18454 ft 370 kts 345°
2026-04-29 19:35 22.12801 72.85399 17898 ft 368 kts 345°
2026-04-29 19:35 22.15293 72.84806 17312 ft 366 kts 345°
2026-04-29 19:35 22.17773 72.84216 16746 ft 363 kts 345°
2026-04-29 19:35 22.20235 72.83630 16182 ft 361 kts 345°
2026-04-29 19:36 22.22685 72.83047 15634 ft 359 kts 345°
2026-04-29 19:36 22.25119 72.82467 15089 ft 357 kts 345°
2026-04-29 19:36 22.27535 72.81891 14562 ft 355 kts 345°
2026-04-29 19:36 22.29952 72.81315 14039 ft 353 kts 345°
2026-04-29 19:37 22.32341 72.80745 13531 ft 351 kts 345°
2026-04-29 19:37 22.33922 72.80367 13123 ft 351 kts 345°
2026-04-29 19:37 22.37066 72.79617 12424 ft 348 kts 345°
2026-04-29 19:37 22.39422 72.79055 11909 ft 345 kts 345°
2026-04-29 19:38 22.41765 72.78495 11390 ft 343 kts 345°
2026-04-29 19:38 22.44091 72.77940 10885 ft 341 kts 345°
2026-04-29 19:38 22.46402 72.77388 10398 ft 339 kts 345°
2026-04-29 19:38 22.48690 72.76841 10073 ft 332 kts 345°
2026-04-29 19:39 22.50898 72.76316 9950 ft 318 kts 345°
2026-04-29 19:39 22.53001 72.75815 9839 ft 304 kts 345°
2026-04-29 19:39 22.55030 72.75331 9724 ft 292 kts 345°
2026-04-29 19:39 22.56991 72.74861 9391 ft 288 kts 344°
2026-04-29 19:40 22.58943 72.74392 8985 ft 286 kts 344°
2026-04-29 19:40 22.60887 72.73925 8579 ft 285 kts 344°
2026-04-29 19:40 22.62818 72.73461 8194 ft 284 kts 344°
2026-04-29 19:40 22.64741 72.73000 7810 ft 282 kts 344°
2026-04-29 19:41 22.66660 72.72540 7428 ft 281 kts 344°
2026-04-29 19:41 22.68569 72.72083 7004 ft 279 kts 344°
2026-04-29 19:41 22.70458 72.71630 6475 ft 278 kts 344°
2026-04-29 19:41 22.72340 72.71178 5936 ft 277 kts 345°
2026-04-29 19:42 22.74197 72.70734 5426 ft 274 kts 344°
2026-04-29 19:42 22.75453 72.70434 5089 ft 273 kts 344°
2026-04-29 19:42 22.77881 72.69854 4441 ft 270 kts 343°
2026-04-29 19:42 22.79745 72.69407 3923 ft 270 kts 343°
2026-04-29 19:43 22.81556 72.68970 3548 ft 269 kts 343°
2026-04-29 19:43 22.83374 72.68534 3195 ft 267 kts 343°
2026-04-29 19:43 22.85204 72.68150 2852 ft 269 kts 352°
2026-04-29 19:43 22.87056 72.68491 2480 ft 277 kts 20°
2026-04-29 19:44 22.88623 72.69741 2064 ft 286 kts 48°
2026-04-29 19:44 22.89524 72.71637 1877 ft 281 kts 72°
2026-04-29 19:44 22.90147 72.73680 1812 ft 287 kts 68°
2026-04-29 19:44 22.91006 72.75625 1704 ft 283 kts 57°
2026-04-29 19:45 22.92118 72.77364 1602 ft 282 kts 48°
2026-04-29 19:45 22.93452 72.78927 1469 ft 280 kts 42°
2026-04-29 19:45 22.94820 72.80411 1404 ft 275 kts 43°
2026-04-29 19:45 22.96176 72.81895 1401 ft 278 kts 43°
2026-04-29 19:46 22.97554 72.83395 1398 ft 279 kts 43°
2026-04-29 19:46 22.98919 72.84873 1396 ft 279 kts 42°
2026-04-29 19:46 23.00303 72.86377 1398 ft 282 kts 41°
2026-04-29 19:46 23.01906 72.87507 1401 ft 271 kts 15°
2026-04-29 19:47 23.03684 72.87747 1399 ft 247 kts 349°
2026-04-29 19:47 23.05220 72.87251 1396 ft 224 kts 327°
2026-04-29 19:47 23.06566 72.86448 1404 ft 219 kts 326°
2026-04-29 19:47 23.07925 72.85653 1400 ft 220 kts 327°
2026-04-29 19:48 23.09275 72.84878 1397 ft 220 kts 327°
2026-04-29 19:48 23.10156 72.84373 1404 ft 220 kts 327°
2026-04-29 19:48 23.11964 72.83334 1404 ft 220 kts 327°
2026-04-29 19:48 23.13314 72.82559 1400 ft 220 kts 327°
2026-04-29 19:49 23.14669 72.81782 1400 ft 220 kts 327°
2026-04-29 19:49 23.16021 72.81004 1401 ft 217 kts 327°
2026-04-29 19:49 23.17310 72.80266 1394 ft 202 kts 327°
2026-04-29 19:49 23.18518 72.79563 1399 ft 196 kts 322°
2026-04-29 19:50 23.19397 72.78501 1407 ft 186 kts 288°
2026-04-29 19:50 23.19544 72.77159 1398 ft 177 kts 258°
2026-04-29 19:50 23.19082 72.75918 1398 ft 179 kts 239°
2026-04-29 19:50 23.18308 72.74846 1397 ft 182 kts 230°
2026-04-29 19:51 23.17414 72.73841 1400 ft 185 kts 227°
2026-04-29 19:51 23.16503 72.72868 1404 ft 186 kts 228°
2026-04-29 19:51 23.15597 72.71895 1414 ft 169 kts 228°
2026-04-29 19:51 23.14821 72.71066 1390 ft 144 kts 229°
2026-04-29 19:52 23.14138 72.70328 1409 ft 133 kts 229°
2026-04-29 19:52 23.13495 72.69636 1400 ft 129 kts 230°
2026-04-29 19:52 23.12851 72.68940 1274 ft 130 kts 229°
2026-04-29 19:52 23.12224 72.68268 1116 ft 129 kts 229°
2026-04-29 19:53 23.11576 72.67571 964 ft 131 kts 226°
2026-04-29 19:53 23.10921 72.66868 795 ft 136 kts 225°
2026-04-29 19:53 23.10238 72.66136 633 ft 138 kts 225°
2026-04-29 19:53 23.09570 72.65410 415 ft 131 kts 224°
2026-04-29 19:54 23.08253 72.64029 206 ft 125 kts 224°
2026-04-29 19:54 23.07779 72.63514 197 ft 73 kts 224°
2026-04-29 19:54 23.07510 72.63211 208 ft 10 kts 245°
2026-04-29 19:55 23.07476 72.63126 206 ft 15 kts 249°
2026-04-29 19:55 23.07448 72.63031 200 ft 12 kts 251°
2026-04-29 19:55 23.07415 72.62933 197 ft 16 kts 250°
2026-04-29 19:55 23.07367 72.62818 201 ft 10 kts 229°
2026-04-29 19:56 23.07357 72.62806 193 ft 4 kts 228°
2026-04-29 19:56 23.07326 72.62769 197 ft 9 kts 226°
2026-04-29 19:56 23.07275 72.62716 192 ft 11 kts 223°
2026-04-29 19:56 23.07215 72.62655 199 ft 13 kts 223°
2026-04-29 19:57 23.07146 72.62584 199 ft 15 kts 223°
2026-04-29 19:57 23.07095 72.62528 192 ft 16 kts 227°
2026-04-29 19:57 23.06984 72.62410 198 ft 17 kts 224°
2026-04-29 19:57 23.06896 72.62318 200 ft 19 kts 223°
2026-04-29 19:58 23.06844 72.62250 197 ft 13 kts 250°
2026-04-29 19:58 23.06876 72.62192 200 ft 10 kts 316°
2026-04-29 19:58 23.06907 72.62127 195 ft 8 kts 265°
2026-04-29 19:58 23.06903 72.62058 205 ft 9 kts 311°
2026-04-29 19:59 23.06935 72.62021 195 ft 11 kts 314°
2026-04-29 19:59 23.06996 72.61953 203 ft 14 kts 314°
2026-04-29 19:59 23.07046 72.61896 195 ft 9 kts 313°
2026-04-29 19:59 23.07078 72.61905 198 ft 0 kts 67°
2026-04-29 20:00 23.07084 72.61918 198 ft 4 kts 60°
2026-04-29 20:00 23.07094 72.61929 201 ft 1 kts 44°
2026-04-29 20:00 23.07102 72.61938 206 ft 1 kts 44°
2026-04-29 20:00 23.07103 72.61939 195 ft 0 kts 43°